Weather History for Thermopolis, WY

Change the Weather History Date:

Friday, April 12, 2013

  Actual Average (KWRL) Record (KWRL)
Temperature  
Mean Temperature 28 °F 44 °F  
Max Temperature 33 °F 59 °F 79 °F (2003)
Min Temperature 24 °F 30 °F 10 °F (1997)
Degree Days  
Heating Degree Days 36 20  
Month to date heating degree days 263  
Since 1 July heating degree days 7149  
Cooling Degree Days 0 0  
Month to date cooling degree days 0  
Year to date cooling degree days 0  
Moisture  
Dew Point 25 °F    
Average Humidity 85    
Maximum Humidity 100    
Minimum Humidity 60    
Precipitation  
Precipitation 0.00 in 0.03 in 0.51 in (1974)
Month to date precipitation 0.24  
Year to date precipitation 1.12  
Sea Level Pressure  
Sea Level Pressure 29.97 in    
Wind  
Wind Speed 17 mph (NNW)    
Max Wind Speed 38 mph    
Max Gust Speed 44 mph    
T = Trace of Precipitation, MM = Missing Value Source: NWS Daily Summary

Daily Weather History Graph

Daily Weather History Graph

Search for Another Location

Airport:

Trip Planner

Search our weather history database for the weather conditions in past years. The results will help you decide how hot, cold, wet, or windy it might be!

Date:

Astronomy

Apr. 12, 2013 Rise Set
Actual Time 6:35 AM MDT 7:53 PM MDT
Civil Twilight 6:05 AM MDT 8:22 PM MDT
Nautical Twilight 5:29 AM MDT 8:58 PM MDT
Astronomical Twilight 4:52 AM MDT 9:36 PM MDT
Moon 7:43 AM MDT (4/12) 10:31 PM MDT (4/12)
Length of Visible Light 14h 17m
Length of Day
13h 18m
Waxing Crescent, 5% of the Moon is Illuminated
Apr 12
Waxing Crescent
Apr 18
First Quarter
Apr 25
Full
May 2
Last Quarter
May 9
New

Hourly Weather History & Observations

Time (MDT) Temp. Windchill Dew Point Humidity Pressure Visibility Wind Dir Wind Speed Gust Speed Precip Events Conditions
12:15 AM 32.0 °F 23.0 °F 30.2 °F 93% 29.96 in - NW 11.5 mph - N/A   Overcast
12:35 AM 30.2 °F 20.2 °F 30.2 °F 100% 29.95 in - WNW 12.7 mph - N/A   Overcast
12:55 AM 32.0 °F 23.0 °F 30.2 °F 93% 29.96 in - NW 11.5 mph - N/A   Unknown
1:15 AM 32.0 °F 22.5 °F 30.2 °F 93% 29.96 in - NW 12.7 mph - N/A   Unknown
1:35 AM 32.0 °F 23.0 °F 30.2 °F 93% 29.96 in - NW 11.5 mph - N/A   Unknown
1:55 AM 32.0 °F 22.5 °F 30.2 °F 93% 29.96 in - NW 12.7 mph - N/A   Overcast
2:15 AM 32.0 °F 22.5 °F 30.2 °F 93% 29.96 in - NW 12.7 mph - N/A   Overcast
2:35 AM 30.2 °F 19.3 °F 30.2 °F 100% 29.95 in - WNW 15.0 mph - N/A   Overcast
2:55 AM 30.2 °F 18.9 °F 30.2 °F 100% 29.95 in - NW 16.1 mph - N/A   Overcast
3:15 AM 30.2 °F 17.4 °F 30.2 °F 100% 29.94 in - NW 20.7 mph - N/A   Overcast
3:35 AM 30.2 °F 16.2 °F 30.2 °F 100% 29.94 in - NW 25.3 mph - N/A   Overcast
3:55 AM 28.4 °F - 28.4 °F 100% 29.94 in - North - - N/A   Overcast
4:15 AM 28.4 °F - 28.4 °F 100% 29.94 in - North - - N/A   Overcast
4:35 AM 28.4 °F - 28.4 °F 100% 29.94 in - North - - N/A   Overcast
4:55 AM 28.4 °F 15.4 °F 28.4 °F 100% 29.95 in - NW 19.6 mph - N/A   Overcast
5:15 AM 28.4 °F 15.1 °F 28.4 °F 100% 29.95 in - NW 20.7 mph - N/A   Overcast
5:35 AM 28.4 °F 14.4 °F 28.4 °F 100% 29.95 in - NW 23.0 mph - N/A   Overcast
5:55 AM 28.4 °F - 28.4 °F 100% 29.94 in - North - - N/A   Overcast
6:15 AM 26.6 °F 8.7 °F 26.6 °F 100% 29.95 in - NW 38.0 mph 43.7 mph N/A   Overcast
6:35 AM 26.6 °F 8.9 °F 24.8 °F 93% 29.95 in - NW 36.8 mph - N/A   Overcast
6:55 AM 26.6 °F 8.9 °F 24.8 °F 93% 29.95 in - NW 36.8 mph 41.4 mph N/A   Overcast
7:15 AM 26.6 °F 10.3 °F 23.0 °F 86% 29.97 in - NW 29.9 mph - N/A   Overcast
7:35 AM 24.8 °F 7.6 °F 23.0 °F 93% 29.97 in - NW 31.1 mph - N/A   Overcast
8:15 AM 24.8 °F 7.3 °F 23.0 °F 93% 29.98 in - NW 32.2 mph - N/A   Overcast
8:35 AM 24.8 °F 7.1 °F 23.0 °F 93% 29.98 in - WNW 33.4 mph - N/A   Overcast
8:55 AM 24.8 °F 7.6 °F 23.0 °F 93% 29.99 in - WNW 31.1 mph - N/A   Overcast
9:15 AM 24.8 °F 8.1 °F 23.0 °F 93% 30.00 in - NW 28.8 mph - N/A   Overcast
9:35 AM 24.8 °F 8.1 °F 23.0 °F 93% 30.00 in - WNW 28.8 mph - N/A   Unknown
9:55 AM 24.8 °F 8.1 °F 23.0 °F 93% 30.01 in - WNW 28.8 mph - N/A   Unknown
10:15 AM 24.8 °F 8.7 °F 23.0 °F 93% 30.02 in - NW 26.5 mph - N/A   Overcast
10:35 AM 26.6 °F 11.7 °F 23.0 °F 86% 30.04 in - NW 24.2 mph - N/A   Overcast
11:15 AM 26.6 °F 12.0 °F 24.8 °F 93% 30.05 in - NW 23.0 mph - N/A   Unknown
11:35 AM 26.6 °F 13.4 °F 24.8 °F 93% 30.06 in - NW 18.4 mph - N/A   Unknown
11:55 AM 26.6 °F 12.7 °F 24.8 °F 93% 30.06 in - NW 20.7 mph - N/A   Unknown
12:15 PM 26.6 °F 13.1 °F 24.8 °F 93% 30.06 in - NW 19.6 mph - N/A   Unknown
12:35 PM 26.6 °F 13.4 °F 24.8 °F 93% 30.06 in - NNW 18.4 mph - N/A   Unknown
12:55 PM 28.4 °F 16.6 °F 26.6 °F 93% 30.05 in - NW 16.1 mph - N/A   Unknown
1:15 PM 28.4 °F 16.6 °F 24.8 °F 86% 30.05 in - NNW 16.1 mph - N/A   Unknown
1:35 PM 28.4 °F 18.0 °F 24.8 °F 86% 30.05 in - NNW 12.7 mph - N/A   Unknown
1:55 PM 28.4 °F 18.0 °F 24.8 °F 86% 30.04 in - NNW 12.7 mph - N/A   Unknown
2:15 PM 28.4 °F 19.1 °F 24.8 °F 86% 30.04 in - NNW 10.4 mph - N/A   Unknown
2:35 PM 28.4 °F 20.4 °F 24.8 °F 86% 30.04 in - North 8.1 mph - N/A   Unknown
2:55 PM 30.2 °F 24.3 °F 23.0 °F 75% 30.04 in - North 5.8 mph - N/A   Mostly Cloudy
3:15 PM 30.2 °F 24.3 °F 23.0 °F 75% 30.03 in - NNE 5.8 mph - N/A   Overcast
3:35 PM 30.2 °F 24.3 °F 23.0 °F 75% 30.02 in - North 5.8 mph - N/A   Mostly Cloudy
3:55 PM 32.0 °F 25.6 °F 24.8 °F 75% 30.02 in - North 6.9 mph - N/A   Clear
4:15 PM 32.0 °F 26.4 °F 24.8 °F 75% 30.02 in - North 5.8 mph - N/A   Clear
4:35 PM 32.0 °F 25.6 °F 26.6 °F 80% 30.01 in - North 6.9 mph - N/A   Clear
4:55 PM 32.0 °F 25.6 °F 24.8 °F 75% 30.00 in - North 6.9 mph - N/A   Clear
5:15 PM 32.0 °F 25.6 °F 24.8 °F 75% 30.00 in - North 6.9 mph - N/A   Clear
5:35 PM 32.0 °F 26.4 °F 23.0 °F 69% 29.99 in - North 5.8 mph - N/A   Clear
5:55 PM 32.0 °F 26.4 °F 24.8 °F 75% 29.98 in - North 5.8 mph - N/A   Clear
6:15 PM 32.0 °F 26.4 °F 23.0 °F 69% 29.97 in - NNE 5.8 mph - N/A   Clear
6:35 PM 32.0 °F 28.7 °F 23.0 °F 69% 29.96 in - ENE 3.5 mph - N/A   Clear
6:55 PM 33.8 °F 26.4 °F 23.0 °F 65% 29.95 in - ESE 9.2 mph - N/A   Clear
7:15 PM 33.8 °F 27.0 °F 21.2 °F 60% 29.95 in - SE 8.1 mph - N/A   Clear
7:35 PM 33.8 °F 27.0 °F 23.0 °F 65% 29.95 in - SE 8.1 mph - N/A   Clear
7:55 PM 32.0 °F 23.0 °F 21.2 °F 64% 29.94 in - SE 11.5 mph - N/A   Clear
8:15 PM 32.0 °F 21.6 °F 21.2 °F 64% 29.93 in - SE 15.0 mph - N/A   Clear
8:35 PM 32.0 °F 20.5 °F 21.2 °F 64% 29.92 in - SE 18.4 mph - N/A   Clear
8:55 PM 32.0 °F 19.5 °F 23.0 °F 69% 29.92 in - SE 21.9 mph - N/A   Clear
9:15 PM 32.0 °F 20.1 °F 23.0 °F 69% 29.92 in - SE 19.6 mph - N/A   Clear
9:35 PM 32.0 °F 19.5 °F 23.0 °F 69% 29.92 in - ESE 21.9 mph - N/A   Clear
9:55 PM 32.0 °F 19.5 °F 21.2 °F 64% 29.92 in - ESE 21.9 mph - N/A   Clear
10:15 PM 32.0 °F 18.4 °F 23.0 °F 69% 29.91 in - ESE 26.5 mph - N/A   Clear
10:35 PM 32.0 °F 17.9 °F 23.0 °F 69% 29.90 in - SE 28.8 mph - N/A   Clear
10:55 PM 32.0 °F 18.4 °F 23.0 °F 69% 29.90 in - ESE 26.5 mph - N/A   Clear
11:15 PM 30.2 °F 16.8 °F 23.0 °F 75% 29.89 in - SE 23.0 mph - N/A   Clear
11:35 PM 30.2 °F 17.8 °F 23.0 °F 75% 29.89 in - SE 19.6 mph - N/A   Clear
11:55 PM 30.2 °F 17.8 °F 23.0 °F 75% 29.88 in - ESE 19.6 mph - N/A   Clear